Scroll for more >

River gauges, storages, and weirs in the Murray–Darling Basin

Type Locationsort ascending River Water level Flow Volume Release Water temp Salinity Rainfall
Weirs Yarrawonga Weir Upstream Murray 124.74 m 23/04/2018 21:45 Not measured Not measured Not measured Not measured Not measured 0.0 mm 23/04/2018 9:00 Full data
Weirs Yarrawonga Weir Downstream Murray 1.53 m 23/04/2018 22:00 8846 ML/Day 23/04/2018 22:00 Not measured Not measured 19.2°C 23/04/2018 22:00 83.0 μS/cm 23/04/2018 22:00 Not measured Full data
River Gauge Yarrawonga Main Channel Murray 123.69 m 23/04/2018 21:45 Not measured Not measured 1100.5 ML/d23/04/2018 8:45 Not measured Not measured Not measured Full data
River Gauge Wilcania Darling -0.25 m 23/04/2018 21:45 1 ML/Day 17/04/2018 12:00 Not measured Not measured 14.3°C 23/04/2018 22:00 0.0 μS/cm 23/04/2018 21:45 Not measured Full data
Weirs Wentworth Weir Murray 27.49 m 23/04/2018 21:45 Not measured Not measured 5258.8 ML/d23/04/2018 7:45 Not measured 164.0 μS/cm 23/04/2018 7:45 0.0 mm 22/04/2018 9:00 Full data
River Gauge Weir 32 Upstream Darling 1.33 m 23/04/2018 21:45 194 ML/Day 23/04/2018 21:45 Not measured Not measured 20.1°C 23/04/2018 21:45 701.2 μS/cm 23/04/2018 21:45 Not measured Full data
River Gauge Wakool Junction Murray 2.79 m 23/04/2018 21:45 6836 ML/Day 23/04/2018 21:45 Not measured Not measured 18.7°C 23/04/2018 21:45 105.6 μS/cm 23/04/2018 21:45 Not measured Full data
River Gauge Wakool Canal Wakool 0.63 m 23/04/2018 21:45 Not measured Not measured 772.6 ML/d23/04/2018 8:45 Not measured Not measured Not measured Full data
Weirs Torrumbarry Weir Upstream Murray 86.05 m 23/04/2018 21:15 Not measured 37 GL 23/04/2018 8:45 Not measured 17.6°C 23/04/2018 8:45 75.9 μS/cm 23/04/2018 20:45 0.0 mm 23/04/2018 9:00 Full data
Weirs Torrumbarry Weir Upstream Murray 86.05 m 23/04/2018 21:15 Not measured 37 GL 23/04/2018 8:45 Not measured 17.6°C 23/04/2018 8:45 75.9 μS/cm 23/04/2018 20:45 0.0 mm 23/04/2018 9:00 Full data
Weirs Torrumbarry Weir Upstream Murray 86.05 m 23/04/2018 21:15 Not measured 37 GL 23/04/2018 8:45 Not measured 17.6°C 23/04/2018 8:45 75.9 μS/cm 23/04/2018 20:45 0.0 mm 23/04/2018 9:00 Full data
Weirs Torrumbarry Weir Downstream Murray 2.29 m 23/04/2018 21:45 6599 ML/Day 23/04/2018 21:45 Not measured Not measured 17.8°C 23/04/2018 21:45 75.9 μS/cm 23/04/2018 21:45 Not measured Full data
Weirs Torrumbarry Weir Downstream Murray 2.29 m 23/04/2018 21:45 6599 ML/Day 23/04/2018 21:45 Not measured Not measured 17.8°C 23/04/2018 21:45 75.9 μS/cm 23/04/2018 21:45 Not measured Full data
Weirs Torrumbarry Weir Downstream Murray 2.29 m 23/04/2018 21:45 6599 ML/Day 23/04/2018 21:45 Not measured Not measured 17.8°C 23/04/2018 21:45 75.9 μS/cm 23/04/2018 21:45 Not measured Full data
River Gauge Torrumbarry Headworks Murray 85.24 m 23/04/2018 21:45 Not measured Not measured 2436.1 ML/d23/04/2018 21:45 Not measured Not measured Not measured Full data
River Gauge Tocumwal Murray 2.11 m 23/04/2018 21:45 8577 ML/Day 23/04/2018 21:45 Not measured Not measured 18.5°C 23/04/2018 21:45 60.8 μS/cm 23/04/2018 21:45 Not measured Full data
River Gauge Tauwitchere Barrage Murray 0.56 m 23/04/2018 20:45 Not measured Not measured Not measured Not measured Not measured Not measured Full data
River Gauge Tallandoon Mitta 1.76 m 23/04/2018 21:45 1345 ML/Day 23/04/2018 21:45 Not measured Not measured 13.7°C 23/04/2018 21:45 68.6 μS/cm 23/04/2018 21:45 Not measured Full data
River Gauge Tallandoon Mitta 1.76 m 23/04/2018 21:45 1345 ML/Day 23/04/2018 21:45 Not measured Not measured 13.7°C 23/04/2018 21:45 68.6 μS/cm 23/04/2018 21:45 Not measured Full data
River Gauge Swan Hill Murray 1.23 m 23/04/2018 21:45 6205 ML/Day 23/04/2018 21:45 Not measured Not measured 18.5°C 23/04/2018 21:45 72.6 μS/cm 23/04/2018 21:45 Not measured Full data
River Gauge Stoney Crossing Murray 1.53 m 23/04/2018 21:45 675 ML/Day 23/04/2018 21:45 Not measured 653.7 ML/d23/04/2018 7:45 18.6°C 23/04/2018 21:45 173.0 μS/cm 23/04/2018 21:45 Not measured Full data
Weirs Steven's Weir Upstream Wakool 4.61 m 23/04/2018 22:15 Not measured Not measured Not measured Not measured Not measured Not measured Full data
Weirs Steven's Weir Downstream Wakool 1.05 m 23/04/2018 21:45 713 ML/Day 23/04/2018 21:45 Not measured Not measured 18.6°C 23/04/2018 21:45 47.0 μS/cm 23/04/2018 21:45 0.0 mm 12/04/2018 9:00 Full data
River Gauge Rufus River Murray 20.45 m 23/04/2018 7:45 Not measured Not measured 1744.1 ML/d23/04/2018 7:45 Not measured 249.2 μS/cm 23/04/2018 18:45 Not measured Full data
River Gauge Rochester Campaspe 1.9 m 23/04/2018 21:45 221 ML/Day 23/04/2018 21:45 Not measured Not measured 16.0°C 23/04/2018 21:45 432.4 μS/cm 23/04/2018 21:45 0.0 mm 23/04/2018 9:00 Full data
River Gauge Pinegrove Murray 0.98 m 23/04/2018 22:00 160 ML/Day 23/04/2018 22:00 Not measured Not measured 15.6°C 23/04/2018 22:00 78.8 μS/cm 23/04/2018 22:00 0.0 mm 23/04/2018 9:00 Full data
River Gauge Peechelba Ovens 126.28 m 23/04/2018 21:45 322 ML/Day 23/04/2018 21:45 Not measured Not measured 17.6°C 23/04/2018 21:45 35.7 μS/cm 23/04/2018 21:45 Not measured Full data
River Gauge Murray Bridge Murray 0.47 m 23/04/2018 20:45 Not measured Not measured Not measured 20.0°C 23/04/2018 20:45 398.4 μS/cm 23/04/2018 20:45 Not measured Full data
River Gauge Mundoo Barrage Murray 0.5 m 23/04/2018 7:45 Not measured Not measured Not measured Not measured Not measured Not measured Full data
River Gauge Mulwala Canal Murray Not measured Not measured Not measured 4751.3 ML/d23/04/2018 7:45 Not measured Not measured Not measured Full data
River Gauge Morgan Downstream Murray Not measured Not measured Not measured 5278.3 ML/d23/04/2018 20:45 Not measured 348.1 μS/cm 23/04/2018 18:45 Not measured Full data
Weirs Mildura Weir downstream Murray 30.92 m 23/04/2018 21:45 Not measured Not measured Not measured 20.0°C 23/04/2018 21:45 8.9 μS/cm 23/04/2018 21:45 Not measured Full data
Storage Menindee Lakes Darling Not measured Not measured 239 GL 23/04/2018 7:45 Not measured Not measured Not measured Not measured Full data
River Gauge McCoy Bridge Goulburn 2.19 m 23/04/2018 21:45 2237 ML/Day 23/04/2018 21:45 Not measured Not measured 16.7°C 23/04/2018 21:45 56.1 μS/cm 23/04/2018 21:45 Not measured Full data
Weirs Lock 9 Upstream Murray 27.31 m 23/04/2018 20:45 Not measured Not measured Not measured 21.1°C 23/04/2018 20:45 182.0 μS/cm 23/04/2018 20:45 Not measured Full data
Weirs Lock 9 Downstream Murray 24.33 m 23/04/2018 20:45 Not measured Not measured Not measured Not measured Not measured Not measured Full data
Weirs Lock 8 Upstream Murray 24.32 m 23/04/2018 20:45 Not measured Not measured Not measured 20.7°C 23/04/2018 20:45 197.6 μS/cm 23/04/2018 20:45 Not measured Full data
Weirs Lock 7 Upstream Murray 22.02 m 23/04/2018 20:45 Not measured Not measured Not measured 21.0°C 23/04/2018 20:45 203.4 μS/cm 23/04/2018 20:45 Not measured Full data
Weirs Lock 7 Downstream Murray 20.18 m 23/04/2018 20:45 Not measured Not measured Not measured Not measured Not measured Not measured Full data
Weirs Lock 6 Upstream Murray 19.27 m 23/04/2018 20:45 Not measured Not measured Not measured 20.5°C 23/04/2018 20:45 251.1 μS/cm 23/04/2018 20:45 Not measured Full data
Weirs Lock 6 Downstream Murray 16.35 m 23/04/2018 20:45 Not measured Not measured Not measured Not measured Not measured Not measured Full data
Weirs Lock 5 Upstream Murray 16.34 m 23/04/2018 20:45 Not measured Not measured Not measured 20.9°C 23/04/2018 20:45 265.5 μS/cm 23/04/2018 20:45 Not measured Full data
Weirs Lock 5 Downstream Murray 13.39 m 23/04/2018 20:45 Not measured Not measured Not measured Not measured Not measured Not measured Full data
Weirs Lock 4 Upstream Murray 13.28 m 23/04/2018 20:45 Not measured Not measured Not measured Not measured Not measured Not measured Full data
Weirs Lock 4 Downstream Murray 10.46 m 23/04/2018 20:45 Not measured Not measured Not measured Not measured Not measured Not measured Full data
Weirs Lock 3 Upstream Murray 9.88 m 23/04/2018 20:45 Not measured Not measured Not measured Not measured Not measured Not measured Full data
Weirs Lock 3 Downstream Murray 6.29 m 23/04/2018 20:45 Not measured Not measured Not measured Not measured Not measured Not measured Full data
Weirs Lock 2 Upstream Murray 6.12 m 23/04/2018 20:45 Not measured Not measured Not measured 20.5°C 23/04/2018 20:45 340.5 μS/cm 23/04/2018 20:45 Not measured Full data
Weirs Lock 2 Downstream Murray 3.35 m 23/04/2018 20:45 Not measured Not measured Not measured Not measured Not measured Not measured Full data
Weirs Lock 1 Upstream Murray 3.23 m 23/04/2018 20:45 Not measured Not measured Not measured 20.7°C 23/04/2018 20:45 350.9 μS/cm 23/04/2018 20:45 Not measured Full data
Weirs Lock 1 Downstream Murray 0.45 m 23/04/2018 20:45 Not measured Not measured 4234.8 ML/d23/04/2018 7:45 Not measured Not measured Not measured Full data
Storage Lake Victoria Murray 22.49 m 23/04/2018 20:45 Not measured 200 GL 23/04/2018 20:45 Not measured 19.6°C 23/04/2018 20:45 243.3 μS/cm 23/04/2018 20:45 Not measured Full data
River Gauge Lake Alexandrina Murray 0.51 m 23/04/2018 5:45 Not measured 1454 GL 23/04/2018 5:45 Not measured Not measured 789.4 μS/cm 23/04/2018 20:45 Not measured Full data
River Gauge Lake Albert Murray 0.52 m 23/04/2018 5:45 Not measured 232 GL 23/04/2018 5:45 Not measured Not measured Not measured Not measured Full data
River Gauge Kerang Loddon 0.43 m 23/04/2018 21:45 313 ML/Day 23/04/2018 21:45 Not measured Not measured 18.4°C 23/04/2018 21:45 121.4 μS/cm 23/04/2018 21:45 Not measured Full data
River Gauge Jingellic Murray 1.62 m 23/04/2018 21:45 3830 ML/Day 23/04/2018 21:45 Not measured Not measured 15.0°C 23/04/2018 21:45 33.0 μS/cm 23/04/2018 21:45 0.0 mm 23/04/2018 9:00 Full data
Storage Hume Dam Murray 178.66 m 23/04/2018 22:15 Not measured 981 GL 23/04/2018 22:15 14000.0 ML/d23/04/2018 8:00 Not measured Not measured 0.0 mm 23/04/2018 9:00 Full data
River Gauge Hinnomunjie Mitta 0.54 m 23/04/2018 21:45 225 ML/Day 23/04/2018 21:45 Not measured Not measured 13.6°C 23/04/2018 21:45 33.5 μS/cm 23/04/2018 21:45 0.0 mm 23/04/2018 9:00 Full data
River Gauge Gulpa Creek Offtake Murray 2.51 m 23/04/2018 22:00 344 ML/Day 23/04/2018 22:00 Not measured Not measured Not measured Not measured Not measured Full data
River Gauge Frenchman Creek Murray 27.29 m 23/04/2018 7:45 Not measured Not measured 1257.4 ML/d23/04/2018 7:45 Not measured Not measured Not measured Full data
River Gauge Flow to South Australia Murray Not measured Not measured Not measured 5589.1 ML/d23/04/2018 7:45 Not measured Not measured Not measured Full data
Weirs Euston Weir Upstream Murray 47.54 m 23/04/2018 8:45 Not measured 36 GL 23/04/2018 7:45 Not measured Not measured Not measured 0.0 mm 22/04/2018 9:00 Full data
Weirs Euston Weir Downstream Murray 43.11 m 23/04/2018 21:45 5993 ML/Day 23/04/2018 21:45 Not measured Not measured 19.5°C 23/04/2018 21:45 104.2 μS/cm 23/04/2018 21:45 Not measured Full data
River Gauge Edward River Offtake Murray 2.42 m 23/04/2018 22:30 1583 ML/Day 23/04/2018 22:30 Not measured Not measured 18.7°C 23/04/2018 21:45 42.3 μS/cm 23/04/2018 21:45 Not measured Full data
River Gauge Edward Escape Wakool 0.66 m 23/04/2018 21:45 519 ML/Day 23/04/2018 21:45 Not measured Not measured 19.2°C 23/04/2018 21:45 58.8 μS/cm 23/04/2018 21:45 Not measured Full data
River Gauge Echuca Wharf Murray 87.13 m 23/04/2018 20:45 Not measured Not measured Not measured Not measured Not measured Not measured Full data
River Gauge Doctors Point Murray 3.05 m 23/04/2018 22:00 15804 ML/Day 23/04/2018 22:00 Not measured Not measured 19.3°C 23/04/2018 22:00 58.7 μS/cm 23/04/2018 22:00 Not measured Full data
Storage Dartmouth Dam Mitta 479.01 m 23/04/2018 22:15 Not measured 3414 GL 23/04/2018 22:15 Not measured Not measured Not measured Not measured Full data
Storage Dartmouth Dam Mitta 479.01 m 23/04/2018 22:15 Not measured 3414 GL 23/04/2018 22:15 Not measured Not measured Not measured Not measured Full data
River Gauge Corowa Murray 2.97 m 23/04/2018 22:00 13974 ML/Day 23/04/2018 22:00 Not measured Not measured 19.7°C 23/04/2018 22:00 48.4 μS/cm 23/04/2018 22:00 Not measured Full data
River Gauge Colignan Murray 1.82 m 23/04/2018 21:45 5845 ML/Day 23/04/2018 21:45 Not measured Not measured 20.1°C 23/04/2018 21:45 100.4 μS/cm 23/04/2018 21:45 Not measured Full data
River Gauge Colemans Mitta 1.3 m 23/04/2018 22:15 727 ML/Day 23/04/2018 22:15 Not measured Not measured 11.7°C 23/04/2018 21:45 36.7 μS/cm 23/04/2018 21:45 Not measured Full data
River Gauge Colemans Mitta 1.3 m 23/04/2018 22:15 727 ML/Day 23/04/2018 22:15 Not measured Not measured 11.7°C 23/04/2018 21:45 36.7 μS/cm 23/04/2018 21:45 Not measured Full data
River Gauge Burtundy Darling 0.68 m 23/04/2018 22:00 62 ML/Day 23/04/2018 22:00 Not measured Not measured 19.6°C 23/04/2018 21:45 708.7 μS/cm 23/04/2018 21:45 Not measured Full data
River Gauge Bringenbrong Bridge Murray 1.49 m 23/04/2018 22:00 3661 ML/Day 23/04/2018 22:00 Not measured Not measured Not measured Not measured Not measured Full data
River Gauge Biggara Murray 0.31 m 23/04/2018 22:00 276 ML/Day 23/04/2018 22:00 Not measured Not measured 13.9°C 23/04/2018 22:00 58.6 μS/cm 23/04/2018 22:00 0.0 mm 23/04/2018 9:00 Full data
River Gauge Bandiana Kiewa 0.88 m 23/04/2018 21:45 352 ML/Day 23/04/2018 21:45 Not measured Not measured 17.0°C 23/04/2018 21:45 41.3 μS/cm 23/04/2018 21:45 Not measured Full data
River Gauge Balranald Murrumbidgee 0.56 m 23/04/2018 21:45 249 ML/Day 23/04/2018 21:45 Not measured Not measured 18.7°C 23/04/2018 21:45 121.3 μS/cm 23/04/2018 21:45 Not measured Full data
River Gauge Albury (Union Bridge) Murray 2.07 m 23/04/2018 22:00 Not measured Not measured Not measured 19.5°C 23/04/2018 22:00 56.2 μS/cm 23/04/2018 22:00 Not measured Full data